When you browse on this site, cookies collect data to enhance your experience and personalize the content and advertising you see.
Visit our Privacy Policy to learn more. By continuing to use the site, you agree to this use of cookies and data.
  • In Sweden
  • List of Countries
  • For 7 days
  • Water Temperature
  • Satellite Maps
  • Weather Map
  • Weather Widgets
  • user-avatar
    Login

    Hourly Weather Baykan

    Today, 17 January, Thursday

    Time Temperature Precipitation Wind Pressure Humidity
    00:00 +3°C° 0.5 mm 2 mps 676 mmHg 89%
    01:00 +3°C° 0.2 mm 2 mps 676 mmHg 89%
    02:00 +3°C° 0.2 mm 2 mps 676 mmHg 89%
    03:00 +3°C° 0.2 mm 2 mps 676 mmHg 88%
    04:00 +3°C° 0.3 mm 2 mps 676 mmHg 86%
    05:00 +3°C° 0.3 mm 2 mps 676 mmHg 83%
    06:00 +2°C° 0.3 mm 2 mps 675 mmHg 80%
    07:00 +2°C° 0 mm 2 mps 676 mmHg 79%
    08:00 +3°C° 0 mm 1 mps 676 mmHg 77%
    09:00 +3°C° 0 mm 1 mps 676 mmHg 75%
    10:00 +4°C° 0 mm 1 mps 676 mmHg 76%
    11:00 +5°C° 0 mm 1 mps 677 mmHg 78%
    12:00 +5°C° 0 mm 0 mps 677 mmHg 79%
    13:00 +5°C° 0.2 mm 0 mps 677 mmHg 79%
    14:00 +5°C° 0.2 mm 0 mps 677 mmHg 79%
    15:00 +5°C° 0.2 mm 0 mps 678 mmHg 79%
    16:00 +5°C° 0.2 mm 1 mps 678 mmHg 80%
    17:00 +5°C° 0.2 mm 1 mps 679 mmHg 81%
    18:00 +3°C° 0.2 mm 2 mps 679 mmHg 82%
    19:00 +3°C° 0.1 mm 2 mps 680 mmHg 80%
    20:00 +1°C° 0.1 mm 3 mps 680 mmHg 79%
    21:00 0°C° 0.1 mm 3 mps 680 mmHg 78%
    22:00 0°C° 0 mm 3 mps 681 mmHg 76%
    23:00 -1°C° 0 mm 3 mps 682 mmHg 74%

    Tomorrow, 18 January, Friday

    Time Temperature Precipitation Wind Pressure Humidity
    00:00 -2°C° 0 mm 3 mps 682 mmHg 72%
    01:00 -2°C° 0.3 mm 3 mps 683 mmHg 75%
    02:00 -2°C° 0.3 mm 3 mps 684 mmHg 78%
    03:00 -4°C° 0.3 mm 3 mps 685 mmHg 80%
    04:00 -4°C° 0.1 mm 3 mps 685 mmHg 79%
    05:00 -4°C° 0.1 mm 3 mps 686 mmHg 79%
    06:00 -4°C° 0.1 mm 3 mps 686 mmHg 78%
    07:00 -4°C° 0 mm 3 mps 687 mmHg 76%
    08:00 -5°C° 0 mm 3 mps 687 mmHg 73%
    09:00 -5°C° 0 mm 3 mps 688 mmHg 71%
    10:00 -3°C° 0 mm 2 mps 688 mmHg 68%
    11:00 -1°C° 0 mm 2 mps 689 mmHg 65%
    12:00 +1°C° 0 mm 2 mps 689 mmHg 62%
    13:00 +2°C° 0 mm 1 mps 689 mmHg 62%
    14:00 +2°C° 0 mm 1 mps 689 mmHg 62%
    15:00 +3°C° 0 mm 1 mps 689 mmHg 63%
    16:00 +1°C° 0 mm 1 mps 689 mmHg 64%
    17:00 0°C° 0 mm 1 mps 689 mmHg 66%
    18:00 -1°C° 0 mm 1 mps 689 mmHg 68%
    19:00 -4°C° 0 mm 2 mps 690 mmHg 67%
    20:00 -4°C° 0 mm 2 mps 690 mmHg 67%
    21:00 -4°C° 0 mm 2 mps 690 mmHg 66%
    22:00 -4°C° 0 mm 2 mps 690 mmHg 65%
    23:00 -5°C° 0 mm 2 mps 691 mmHg 65%

    Day after tomorrow, 19 January, Saturday

    Time Temperature Precipitation Wind Pressure Humidity
    00:00 -5°C° 0 mm 2 mps 691 mmHg 64%
    01:00 -5°C° 0 mm 2 mps 691 mmHg 63%
    02:00 -5°C° 0 mm 2 mps 691 mmHg 63%
    03:00 -5°C° 0 mm 2 mps 691 mmHg 62%
    04:00 -5°C° 0 mm 2 mps 691 mmHg 62%
    05:00 -6°C° 0 mm 2 mps 690 mmHg 61%
    06:00 -6°C° 0 mm 2 mps 690 mmHg 61%
    07:00 -5°C° 0 mm 2 mps 690 mmHg 60%
    08:00 -5°C° 0 mm 2 mps 691 mmHg 60%
    09:00 -4°C° 0 mm 2 mps 691 mmHg 60%
    10:00 -3°C° 0 mm 2 mps 691 mmHg 58%
    11:00 +1°C° 0 mm 1 mps 691 mmHg 57%
    12:00 +2°C° 0 mm 1 mps 690 mmHg 55%
    13:00 +2°C° 0 mm 1 mps 690 mmHg 57%
    14:00 +3°C° 0 mm 1 mps 689 mmHg 58%
    15:00 +3°C° 0 mm 1 mps 689 mmHg 59%
    16:00 +2°C° 0 mm 1 mps 689 mmHg 62%
    17:00 +1°C° 0 mm 1 mps 689 mmHg 64%
    18:00 -1°C° 0 mm 1 mps 689 mmHg 67%
    19:00 -3°C° 0 mm 2 mps 689 mmHg 66%
    20:00 -3°C° 0 mm 2 mps 689 mmHg 66%
    21:00 -4°C° 0 mm 2 mps 690 mmHg 65%
    22:00 -4°C° 0 mm 2 mps 690 mmHg 64%
    23:00 -4°C° 0 mm 2 mps 690 mmHg 63%

    20 January, Sunday

    Time Temperature Precipitation Wind Pressure Humidity
    00:00 -4°C° 0 mm 2 mps 690 mmHg 62%
    01:00 -4°C° 0 mm 2 mps 690 mmHg 61%
    02:00 -5°C° 0 mm 2 mps 690 mmHg 60%
    03:00 -5°C° 0 mm 2 mps 690 mmHg 59%
    04:00 -5°C° 0 mm 2 mps 690 mmHg 58%
    05:00 -5°C° 0 mm 2 mps 690 mmHg 58%
    06:00 -5°C° 0 mm 2 mps 689 mmHg 57%
    07:00 -4°C° 0 mm 2 mps 690 mmHg 57%
    08:00 -4°C° 0 mm 2 mps 690 mmHg 57%
    09:00 -3°C° 0 mm 2 mps 690 mmHg 57%
    10:00 -2°C° 0 mm 2 mps 690 mmHg 55%
    11:00 +2°C° 0 mm 1 mps 690 mmHg 53%
    12:00 +3°C° 0 mm 1 mps 690 mmHg 51%
    13:00 +3°C° 0 mm 1 mps 690 mmHg 53%
    14:00 +4°C° 0 mm 1 mps 689 mmHg 55%
    15:00 +4°C° 0 mm 1 mps 689 mmHg 57%
    16:00 +2°C° 0 mm 1 mps 689 mmHg 59%
    17:00 +1°C° 0 mm 1 mps 689 mmHg 61%
    18:00 -1°C° 0 mm 1 mps 689 mmHg 63%
    19:00 -3°C° 0 mm 2 mps 689 mmHg 63%
    20:00 -3°C° 0 mm 2 mps 689 mmHg 64%
    21:00 -4°C° 0 mm 2 mps 690 mmHg 64%
    22:00 -4°C° 0 mm 2 mps 690 mmHg 63%
    23:00 -4°C° 0 mm 2 mps 690 mmHg 62%

    21 January, Monday

    Time Temperature Precipitation Wind Pressure Humidity
    00:00 -4°C° 0 mm 2 mps 690 mmHg 61%
    01:00 -4°C° 0 mm 2 mps 690 mmHg 60%
    02:00 -4°C° 0 mm 2 mps 690 mmHg 59%
    03:00 -4°C° 0 mm 2 mps 690 mmHg 59%
    04:00 -4°C° 0 mm 2 mps 690 mmHg 58%
    05:00 -4°C° 0 mm 2 mps 689 mmHg 58%
    06:00 -4°C° 0 mm 2 mps 689 mmHg 57%
    07:00 -4°C° 0 mm 2 mps 689 mmHg 57%
    08:00 -3°C° 0 mm 2 mps 690 mmHg 57%
    09:00 -3°C° 0 mm 2 mps 690 mmHg 57%
    10:00 -2°C° 0 mm 2 mps 690 mmHg 55%
    11:00 +2°C° 0 mm 1 mps 689 mmHg 52%
    12:00 +3°C° 0 mm 1 mps 689 mmHg 49%
    13:00 +4°C° 0 mm 1 mps 689 mmHg 51%
    14:00 +4°C° 0 mm 1 mps 688 mmHg 53%
    15:00 +4°C° 0 mm 1 mps 688 mmHg 54%
    16:00 +3°C° 0 mm 1 mps 688 mmHg 57%
    17:00 +1°C° 0 mm 1 mps 688 mmHg 59%
    18:00 -2°C° 0 mm 2 mps 688 mmHg 62%
    19:00 -3°C° 0 mm 2 mps 688 mmHg 62%
    20:00 -3°C° 0 mm 2 mps 689 mmHg 62%
    21:00 -4°C° 0 mm 2 mps 689 mmHg 61%
    22:00 -4°C° 0 mm 2 mps 689 mmHg 60%
    23:00 -4°C° 0 mm 2 mps 689 mmHg 59%

    22 January, Tuesday

    Time Temperature Precipitation Wind Pressure Humidity
    00:00 -4°C° 0 mm 2 mps 689 mmHg 57%
    01:00 -4°C° 0 mm 2 mps 689 mmHg 56%
    02:00 -4°C° 0 mm 2 mps 689 mmHg 55%
    03:00 -5°C° 0 mm 2 mps 689 mmHg 54%
    04:00 -5°C° 0 mm 2 mps 689 mmHg 54%
    05:00 -6°C° 0 mm 3 mps 689 mmHg 54%
    06:00 -6°C° 0 mm 3 mps 689 mmHg 53%
    07:00 -5°C° 0 mm 3 mps 689 mmHg 53%
    08:00 -5°C° 0 mm 3 mps 689 mmHg 54%
    09:00 -3°C° 0 mm 2 mps 689 mmHg 54%
    10:00 -1°C° 0 mm 2 mps 689 mmHg 53%
    11:00 +1°C° 0 mm 2 mps 689 mmHg 53%
    12:00 +3°C° 0 mm 2 mps 689 mmHg 52%
    13:00 +4°C° 0 mm 1 mps 689 mmHg 54%
    14:00 +4°C° 0 mm 1 mps 688 mmHg 56%
    15:00 +5°C° 0 mm 1 mps 688 mmHg 58%
    16:00 +2°C° 0 mm 2 mps 688 mmHg 60%
    17:00 +1°C° 0 mm 2 mps 688 mmHg 62%
    18:00 -2°C° 0 mm 2 mps 688 mmHg 64%
    19:00 -2°C° 0 mm 2 mps 689 mmHg 63%
    20:00 -2°C° 0 mm 2 mps 689 mmHg 63%
    21:00 -3°C° 0 mm 2 mps 689 mmHg 63%
    22:00 -3°C° 0 mm 2 mps 689 mmHg 63%
    23:00 -3°C° 0 mm 2 mps 689 mmHg 62%
    Show more